Location: Unspecified
(41.5516°N, 88.1098°W)
Time: 20:10:21
(UTC-05:00)

Cosmos 2058 - Visible Passes

Search period start: 31 March 2015 00:00
Search period end: 10 April 2015 00:00
Orbit: 567 x 590 km, 82.5° (Epoch: 31 March)

Date Brightness Start Highest point End Pass type
(mag) Time Alt. Az. Time Alt. Az. Time Alt. Az.
31 Mar 5.6 20:59:07 10° NW 21:02:12 20° W 21:05:09 10° SW visible
01 Apr 5.9 21:04:24 10° NW 21:06:46 15° W 21:08:59 10° WSW visible
02 Apr 6.3 21:10:25 10° WNW 21:11:20 10° W 21:12:01 10° W visible
04 Apr 3.3 19:39:58 10° NNW 19:44:05 71° W 19:48:10 10° S visible
06 Apr 4.8 19:49:30 10° NNW 19:53:18 35° W 19:57:02 10° SSW visible
07 Apr 5.5 19:54:23 10° NNW 19:57:51 26° W 20:01:16 10° SW visible
08 Apr 6.0 19:59:26 10° NW 20:02:25 19° W 20:05:17 10° SW visible
09 Apr 6.2 20:04:43 10° NW 20:06:58 14° W 20:09:01 10° WSW visible
